• In Russia
  • List of Countries
  • For 7 days
  • Water Temperature
  • Satellite Maps
  • Weather Map
  • Weather Widgets
  • user-avatar
    Login

    Hourly Weather Kaprun

    Today, 24 April, Monday

    Time Temperature Precipitation Wind Pressure Humidity
    00:00 -10°C° 0 mm 1 mps 594 mmHg 97%
    01:00 -13°C° 0 mm 1 mps 592 mmHg 97%
    02:00 -12°C° 0 mm 1 mps 592 mmHg 95%
    03:00 -11°C° 0 mm 1 mps 592 mmHg 93%
    04:00 -11°C° 0 mm 1 mps 593 mmHg 92%
    05:00 -8°C° 0 mm 1 mps 594 mmHg 91%
    06:00 -6°C° 0 mm 1 mps 595 mmHg 90%
    07:00 -3°C° 0 mm 1 mps 596 mmHg 85%
    08:00 -1°C° 0 mm 1 mps 596 mmHg 85%
    09:00 +1°C° 0 mm 1 mps 596 mmHg 85%
    10:00 +2°C° 0 mm 1 mps 597 mmHg 86%
    11:00 +3°C° 0 mm 1 mps 597 mmHg 85%
    12:00 +3°C° 0 mm 1 mps 596 mmHg 85%
    13:00 +3°C° 0 mm 2 mps 596 mmHg 84%
    14:00 +3°C° 0.1 mm 2 mps 596 mmHg 85%
    15:00 +3°C° 0.1 mm 2 mps 596 mmHg 85%
    16:00 +4°C° 0.1 mm 1 mps 595 mmHg 86%
    17:00 +2°C° 0.1 mm 2 mps 595 mmHg 89%
    18:00 -1°C° 0.1 mm 2 mps 594 mmHg 92%
    19:00 -2°C° 0.1 mm 2 mps 593 mmHg 96%
    20:00 -2°C° 0 mm 2 mps 593 mmHg 96%
    21:00 -2°C° 0 mm 2 mps 593 mmHg 96%
    22:00 -2°C° 0 mm 2 mps 593 mmHg 96%
    23:00 -3°C° 0 mm 2 mps 593 mmHg 96%

    Tomorrow, 25 April, Tuesday

    Time Temperature Precipitation Wind Pressure Humidity
    00:00 -4°C° 0 mm 3 mps 593 mmHg 96%
    01:00 -4°C° 0 mm 3 mps 592 mmHg 95%
    02:00 -4°C° 0 mm 3 mps 592 mmHg 95%
    03:00 -4°C° 0 mm 3 mps 591 mmHg 95%
    04:00 -4°C° 0 mm 3 mps 591 mmHg 95%
    05:00 -4°C° 0.1 mm 3 mps 591 mmHg 94%
    06:00 -2°C° 0.1 mm 3 mps 591 mmHg 93%
    07:00 -1°C° 0.1 mm 3 mps 591 mmHg 92%
    08:00 +1°C° 0.1 mm 2 mps 592 mmHg 89%
    09:00 +2°C° 0.1 mm 2 mps 592 mmHg 86%
    10:00 +3°C° 0.1 mm 2 mps 592 mmHg 83%
    11:00 +4°C° 0.2 mm 2 mps 592 mmHg 83%
    12:00 +4°C° 0.2 mm 2 mps 592 mmHg 82%
    13:00 +5°C° 0.2 mm 2 mps 592 mmHg 81%
    14:00 +3°C° 0.5 mm 3 mps 591 mmHg 83%
    15:00 +3°C° 0.5 mm 3 mps 591 mmHg 85%
    16:00 +2°C° 0.5 mm 3 mps 591 mmHg 87%
    17:00 +1°C° 1 mm 3 mps 590 mmHg 91%
    18:00 0°C° 1 mm 3 mps 590 mmHg 95%
    19:00 -1°C° 1 mm 2 mps 590 mmHg 98%
    20:00 -1°C° 1.3 mm 2 mps 590 mmHg 98%
    21:00 -1°C° 1.3 mm 2 mps 590 mmHg 98%
    22:00 -1°C° 1.3 mm 2 mps 590 mmHg 98%
    23:00 -1°C° 0.5 mm 3 mps 590 mmHg 98%

    Day after tomorrow, 26 April, Wednesday

    Time Temperature Precipitation Wind Pressure Humidity
    00:00 -1°C° 0.5 mm 3 mps 590 mmHg 99%
    01:00 -2°C° 0.5 mm 3 mps 589 mmHg 99%
    02:00 -2°C° 0.7 mm 3 mps 589 mmHg 99%
    03:00 -2°C° 0.7 mm 3 mps 589 mmHg 99%
    04:00 -2°C° 0.7 mm 3 mps 589 mmHg 98%
    05:00 -2°C° 1.2 mm 3 mps 589 mmHg 98%
    06:00 -4°C° 1.2 mm 3 mps 589 mmHg 98%
    07:00 -3°C° 1.2 mm 2 mps 589 mmHg 98%
    08:00 -3°C° 1.7 mm 2 mps 589 mmHg 98%
    09:00 -3°C° 1.7 mm 2 mps 589 mmHg 98%
    10:00 -3°C° 1.7 mm 2 mps 589 mmHg 98%
    11:00 -3°C° 1.8 mm 2 mps 589 mmHg 98%
    12:00 -3°C° 1.8 mm 2 mps 589 mmHg 98%
    13:00 -3°C° 1.8 mm 2 mps 589 mmHg 98%
    14:00 -1°C° 2 mm 1 mps 589 mmHg 98%
    15:00 -1°C° 2 mm 1 mps 589 mmHg 98%
    16:00 -1°C° 2 mm 1 mps 589 mmHg 98%
    17:00 -2°C° 1.1 mm 1 mps 589 mmHg 98%
    18:00 -2°C° 1.1 mm 1 mps 588 mmHg 98%
    19:00 -2°C° 1.1 mm 1 mps 588 mmHg 98%
    20:00 -3°C° 1.7 mm 1 mps 588 mmHg 99%
    21:00 -3°C° 1.7 mm 1 mps 588 mmHg 99%
    22:00 -4°C° 1.7 mm 1 mps 588 mmHg 99%
    23:00 -4°C° 0.6 mm 1 mps 588 mmHg 99%

    27 April, Thursday

    Time Temperature Precipitation Wind Pressure Humidity
    00:00 -4°C° 0.6 mm 1 mps 588 mmHg 99%
    01:00 -4°C° 0.6 mm 1 mps 588 mmHg 99%
    02:00 -3°C° 0.7 mm 1 mps 588 mmHg 99%
    03:00 -3°C° 0.7 mm 1 mps 588 mmHg 99%
    04:00 -3°C° 0.7 mm 1 mps 588 mmHg 99%
    05:00 -3°C° 0.6 mm 1 mps 588 mmHg 99%
    06:00 -3°C° 0.6 mm 1 mps 589 mmHg 99%
    07:00 -3°C° 0.6 mm 1 mps 589 mmHg 98%
    08:00 -2°C° 0.5 mm 1 mps 589 mmHg 98%
    09:00 -2°C° 0.5 mm 1 mps 590 mmHg 98%
    10:00 -1°C° 0.5 mm 1 mps 590 mmHg 98%
    11:00 -1°C° 0.8 mm 1 mps 590 mmHg 98%
    12:00 -1°C° 0.8 mm 1 mps 590 mmHg 97%
    13:00 -1°C° 0.8 mm 1 mps 590 mmHg 97%
    14:00 -1°C° 1.5 mm 1 mps 590 mmHg 97%
    15:00 -4°C° 1.5 mm 2 mps 590 mmHg 98%
    16:00 -4°C° 1.5 mm 2 mps 590 mmHg 98%
    17:00 -5°C° 1.5 mm 2 mps 590 mmHg 98%
    18:00 -5°C° 1.5 mm 2 mps 590 mmHg 98%
    19:00 -6°C° 1.5 mm 2 mps 590 mmHg 99%
    20:00 -6°C° 1.6 mm 2 mps 590 mmHg 98%
    21:00 -6°C° 1.6 mm 2 mps 590 mmHg 98%
    22:00 -6°C° 1.6 mm 2 mps 590 mmHg 98%
    23:00 -6°C° 1.2 mm 2 mps 590 mmHg 98%

    28 April, Friday

    Time Temperature Precipitation Wind Pressure Humidity
    00:00 -7°C° 1.2 mm 2 mps 590 mmHg 98%
    01:00 -7°C° 1.2 mm 2 mps 590 mmHg 98%
    02:00 -7°C° 1 mm 2 mps 589 mmHg 98%
    03:00 -7°C° 1 mm 2 mps 589 mmHg 98%
    04:00 -7°C° 1 mm 2 mps 589 mmHg 98%
    05:00 -7°C° 1.1 mm 2 mps 589 mmHg 98%
    06:00 -7°C° 1.1 mm 2 mps 589 mmHg 98%
    07:00 -7°C° 1.1 mm 2 mps 589 mmHg 98%
    08:00 -7°C° 0.9 mm 2 mps 589 mmHg 98%
    09:00 -6°C° 0.9 mm 2 mps 590 mmHg 98%
    10:00 -6°C° 0.9 mm 2 mps 590 mmHg 98%
    11:00 -6°C° 1.1 mm 2 mps 590 mmHg 98%
    12:00 -5°C° 1.1 mm 2 mps 590 mmHg 98%
    13:00 -5°C° 1.1 mm 2 mps 590 mmHg 98%
    14:00 -5°C° 0.7 mm 2 mps 590 mmHg 98%
    15:00 -5°C° 0.7 mm 2 mps 591 mmHg 98%
    16:00 -5°C° 0.7 mm 2 mps 591 mmHg 98%
    17:00 -6°C° 0.5 mm 2 mps 591 mmHg 98%
    18:00 -6°C° 0.5 mm 2 mps 591 mmHg 98%
    19:00 -7°C° 0.5 mm 2 mps 591 mmHg 97%
    20:00 -7°C° 0.4 mm 2 mps 592 mmHg 97%
    21:00 -8°C° 0.4 mm 2 mps 592 mmHg 97%
    22:00 -8°C° 0.4 mm 2 mps 592 mmHg 97%
    23:00 -9°C° 0.3 mm 2 mps 592 mmHg 97%

    29 April, Saturday

    Time Temperature Precipitation Wind Pressure Humidity
    00:00 -9°C° 0.3 mm 2 mps 592 mmHg 97%
    01:00 -9°C° 0.3 mm 2 mps 592 mmHg 96%
    02:00 -10°C° 0.1 mm 2 mps 592 mmHg 96%
    03:00 -12°C° 0.1 mm 2 mps 592 mmHg 96%
    04:00 -13°C° 0.1 mm 2 mps 591 mmHg 96%
    05:00 -12°C° 0 mm 2 mps 592 mmHg 96%
    06:00 -9°C° 0 mm 2 mps 593 mmHg 95%
    07:00 -8°C° 0 mm 2 mps 594 mmHg 94%
    08:00 -6°C° 0 mm 1 mps 594 mmHg 94%
    09:00 -3°C° 0 mm 1 mps 595 mmHg 93%
    10:00 -2°C° 0 mm 1 mps 595 mmHg 93%
    11:00 -2°C° 0 mm 0 mps 595 mmHg 94%
    12:00 -2°C° 0 mm 0 mps 595 mmHg 95%
    13:00 -2°C° 0 mm 0 mps 595 mmHg 96%
    14:00 -1°C° 0.1 mm 0 mps 595 mmHg 96%
    15:00 -1°C° 0.1 mm 0 mps 595 mmHg 96%
    16:00 -1°C° 0.1 mm 0 mps 595 mmHg 95%
    17:00 -2°C° 0 mm 1 mps 594 mmHg 96%
    18:00 -3°C° 0 mm 1 mps 594 mmHg 97%
    19:00 -6°C° 0 mm 1 mps 593 mmHg 98%
    20:00 -7°C° 0 mm 1 mps 593 mmHg 97%
    21:00 -7°C° 0 mm 1 mps 593 mmHg 97%
    22:00 -8°C° 0 mm 1 mps 593 mmHg 96%
    23:00 -9°C° 0 mm 2 mps 593 mmHg 96%
    Show more